Weather Roundup
Issued by NWS Springfield, MO

Home | Current Version | Previous Version | Text Only | Print | Product List | Glossary On
Versions: 1 2 3 4 5 6 7 8 9 10 11 12 13 14 15 16 17 18 19 20 21 22 23 24 25 26 27 28 29 30 31 32 33 34 35 36 37 38 39 40 41 42 43 44 45 46 47 48 49 50
000
NZUS99 KSGF 240059
HRRSGF

HOURLY WEATHER
NATIONAL WEATHER SERVICE SPRINGFIELD MO
800 PM CDT SAT MAY 23 2015

......SGF CWA......

CITY           SKY/WX    TMP DP  RH WIND       PRES   REMARKS
SPRINGFIELD    CLOUDY    69  58  67 SE16      30.06F
JOPLIN         CLOUDY    67  64  90 E10       29.99F
WEST PLAINS    CLOUDY    68  55  63 E7        30.15S
ROLLA          CLOUDY    67  51  56 SE8       30.13S
OSAGE BEACH    CLOUDY    66  57  72 SE5       30.11S
BRANSON        CLOUDY    68  63  83 E12       30.09F

......SURROUNDING SGF CWA......

CITY           SKY/WX    TMP DP  RH WIND       PRES   REMARKS
CHANUTE        HVY RAIN  66  65  96 E10       29.97S FOG
PARSONS        LGT RAIN  68  68 100 SE5       29.96F FOG
COFFEYVILLE    LGT RAIN  68  67  96 SE8       29.93F FOG
EMPORIA        HVY RAIN  59  59 100 NW6       30.02S FOG
SILOAM SPRINGS CLOUDY    68  61  77 E8        30.01F
HARRISON AR    CLOUDY    69  62  78 SE10      30.09F
NEAR YELLVILLE MOCLDY    72  61  68 E6        30.08F

......KANSAS AND MISSOURI......

CITY           SKY/WX    TMP DP  RH WIND       PRES   REMARKS
KANSAS CTY INT RAIN      64  61  90 SE6       30.07S FOG
DOWNTOWN KC    RAIN      65  61  87 E3        30.05S FOG
COLUMBIA       CLOUDY    68  56  65 SE7       30.13R
SEDALIA        CLOUDY    66  56  70 E9        30.10F
ST JOSEPH      RAIN      64  61  90 S6        30.09R FOG
ST LOUIS       CLOUDY    75  47  36 SE10      30.16S
SPIRIT OF STL  CLOUDY    73  50  44 S3        30.14S
KIRKSVILLE     CLOUDY    67  55  65 SE7       30.13S
WICHITA        TSTM      60  58  92 E21       29.89F
TOPEKA         HVY RAIN  62  62 100 NE9       30.05F FOG
OLATHE         LGT RAIN  63  61  93 SE7       30.05R FOG

......TENNESSEE......

CITY           SKY/WX    TMP DP  RH WIND       PRES   REMARKS
MEMPHIS        MOCLDY    79  55  43 SE7       30.14F
NASHVILLE      MOCLDY    75  54  47 SE3       30.23S

......ARKANSAS.......

CITY           SKY/WX    TMP DP  RH WIND       PRES   REMARKS
FAYETTEVILLE   CLOUDY    71  63  75 E10       30.02F
FT SMITH       CLOUDY    73  65  75 E10       30.00S
LITTLE ROCK    MOCLDY    78  63  59 E9        30.08S

......OKLAHOMA.......

CITY           SKY/WX    TMP DP  RH WIND       PRES   REMARKS
TULSA          LGT RAIN  69  68  96 SE12      29.90F FOG
PONCA CITY     TSTM      61  60  97 NE16      29.90F
MCALESTER      LGT RAIN  73  70  90 SE9       29.94F FOG
OKLAHOMA CITY  LGT RAIN  63  63 100 NE8       29.94R

......IOWA............

CITY           SKY/WX    TMP DP  RH WIND       PRES   REMARKS
DES MOINES     CLOUDY    71  53  52 SE7       30.10S
QUAD CITIES    MOCLDY    74  47  38 S7        30.14S

......ILLINOIS........

CITY           SKY/WX    TMP DP  RH WIND       PRES   REMARKS
QUINCY         CLOUDY    72  48  42 S6        30.14S
CHICAGO        MOCLDY    72  43  35 E9        30.18S




USA.gov is the U.S. government's official web portal to all federal, state and local government web resources and services.